Meteo Giornale » Osservazioni meteo Austria » Innsbruck

ore: 03:50 - Osservazioni Meteo Innsbruck
Lat. 47° 16' N Lon. 11° 21' E Alt. 581 metri s.l.m.

poco_nuvoloso

14 °C

Poco Nuvoloso

Temp. 24 Ore

14 °C

25 °C

Nord

3.7 Km/h

Dew point 12 °C

Umidità 87 %

Visibilità  10 Km

Il sole sorge alle ore 06:35

Il sole tramonta alle ore 19:53

Data e Ora Cielo e Fenomeni T °C DP °C Um. % Pres. hPa Vis. km Vento km/h
Oggi h: 03:50 poco_nuvoloso Poco Nuvoloso 14 12 87 1023 10 N 3.7
Oggi h: 03:20 poco_nuvoloso Poco Nuvoloso 14 11 82 1023 10 N 3.7
Oggi h: 02:50 poco_nuvoloso Poco Nuvoloso 14 12 87 1023 10 N 3.7
Oggi h: 02:20 poco_nuvoloso Poco Nuvoloso 14 12 87 1023 10 N 3.7
Oggi h: 01:50 poco_nuvoloso Poco Nuvoloso 14 11 82 1023 10 N 3.7
Oggi h: 01:20 nuvoloso Nuvoloso 14 12 87 1023 10 N 3.7
Oggi h: 00:50 sereno Sereno 14 12 87 1023 10 N 1.8
Oggi h: 00:20 sereno Sereno 15 12 82 1023 10 N 1.8
Ieri h: 23:50 sereno Sereno 16 12 77 1023 10 N 1.8
Ieri h: 23:20 sereno Sereno 16 12 77 1023 10 N 1.8
Ieri h: 22:50 poco_nuvoloso Poco Nuvoloso 17 12 72 1023 10 N 1.8
Ieri h: 22:20 poco_nuvoloso Poco Nuvoloso 18 13 72 1023 10 N 1.8
Ieri h: 21:50 poco_nuvoloso Poco Nuvoloso 18 13 72 1022 10 O 7.4
Ieri h: 21:20 nuvoloso Nuvoloso 19 13 68 1022 10 O 7.4
Ieri h: 20:50 molto_nuvoloso Molto Nuvoloso 20 13 64 1022 10 O/SO 7.4
Ieri h: 20:20 nuvoloso Nuvoloso 20 13 64 1021 10 N 5.5
Ieri h: 19:50 nuvoloso Nuvoloso 21 11 52 1021 10 NE 11.1
Ieri h: 19:20 molto_nuvoloso Molto Nuvoloso 23 11 46 1021 10 E 11.1
Ieri h: 18:50 molto_nuvoloso Molto Nuvoloso 23 11 46 1021 10 E 18.5
Ieri h: 18:20 molto_nuvoloso Molto Nuvoloso 23 12 49 1020 10 E/NE 16.7
Ieri h: 17:50 poco_nuvoloso Poco Nuvoloso 24 12 47 1020 10 E 22.2
Ieri h: 17:20 sereno Sereno 24 12 47 1020 10 E/NE 24
Ieri h: 16:50 poco_nuvoloso Poco Nuvoloso 25 12 44 1020 10 E 20.3
Ieri h: 16:20 sereno Sereno 25 11 41 1020 10 E 16.7
Ieri h: 15:50 sereno Sereno 25 12 44 1020 10 E 14.8
Ieri h: 15:20 sereno Sereno 25 11 41 1020 10 E/NE 11.1
Ieri h: 14:50 sereno Sereno 24 10 41 1021 10 E 13
Ieri h: 14:20 sereno Sereno 24 11 43 1021 10 E/SE 11.1
Ieri h: 13:50 sereno Sereno 24 12 47 1021 10 N 9.3
Ieri h: 13:20 sereno Sereno 23 11 46 1022 10 N 5.5
Ieri h: 12:50 sereno Sereno 22 11 49 1022 10 N 3.7
Ieri h: 12:20 sereno Sereno 21 11 52 1022 10 N 3.7
Ieri h: 11:50 poco_nuvoloso Poco Nuvoloso 20 12 59 1023 10 N 1.8
Ieri h: 11:20 poco_nuvoloso Poco Nuvoloso 19 13 68 1023 10 N 3.7
Ieri h: 10:50 poco_nuvoloso Poco Nuvoloso 18 13 72 1023 10 N 3.7
Ieri h: 10:20 poco_nuvoloso Poco Nuvoloso 17 13 77 1024 10 N 3.7
Ieri h: 09:50 molto_nuvoloso Molto Nuvoloso 17 13 77 1024 10 N 1.8
Ieri h: 09:20 molto_nuvoloso Molto Nuvoloso 16 13 82 1024 10 N 1.8
Ieri h: 08:50 molto_nuvoloso Molto Nuvoloso 16 13 82 1024 10 N 1.8
Ieri h: 08:20 molto_nuvoloso Molto Nuvoloso 15 13 87 1024 10 N 1.8
Ieri h: 07:50 molto_nuvoloso Molto Nuvoloso 15 13 87 1024 10 N 3.7
Ieri h: 07:20 molto_nuvoloso Molto Nuvoloso 14 13 93 1024 10 N 1.8
Ieri h: 06:50 molto_nuvoloso Molto Nuvoloso 14 13 93 1024 10 N 3.7
Ieri h: 06:20 molto_nuvoloso Molto Nuvoloso 15 13 87 1024 10 N 1.8
Ieri h: 05:50 molto_nuvoloso Molto Nuvoloso 15 13 87 1024 10 N 3.7
Ieri h: 05:20 molto_nuvoloso Molto Nuvoloso 15 13 87 1023 10 N 3.7
Ieri h: 04:50 molto_nuvoloso Molto Nuvoloso 14 13 93 1024 10 N 1.8